カタログに戻る

DELTA 4 R/B

LostMEO
NORAD 40535·ROCKET BODY·🇺🇸 United States

打ち上げ Mar 25, 2015 から Cape Canaveral Space Force Station

Loading…

次のパス (今後24時間)

TLE

古いSource: Space-Track

元期: Aug 5, 2026, 04:39 UTC

1 40535U 15013B   26217.19384281  .00000098  00000-0  00000-0 0  9998
2 40535  52.6345 214.2542 0033004  67.6102 292.7505  1.92974634 80100

AllMySatでDELTA 4 R/Bをリアルタイム追跡

Download on the App Store